Temperature
19 19 19 19 18 18 19 20 20 20 21 22 21 21 20 19 19 18 18 18 18 18 18 18 19 19 19 19 19 19 19 19 19 19 19 19 19 19 19 19 19 19 19 19 19 19 19 19 19
19 19 19 18 18 19 20 20 20 21 22 22 21 21 20 19 19 18 18 18 18 19 18 18 18 19 19 19 19 18 18 18 18 18 18 18 18 18 19 19 19 19 19 19 19 19 19 19 19
19 19 19 18 19 19 20 20 20 22 22 22 21 21 20 19 19 18 18 18 18 18 18 18 18 18 18 18 18 18 18 18 18 18 18 18 18 18 18 18 18 18 18 18 18 19 19 19 19
19 19 19 18 20 20 20 20 21 22 22 22 21 20 19 19 19 19 19 19 19 18 18 18 18 18 18 18 18 18 18 18 18 18 18 18 18 18 18 18 18 18 18 18 18 18 18 19 19
19 19 18 19 20 20 20 21 22 21 22 21 21 19 19 19 19 19 19 19 19 18 18 18 18 18 18 18 17 17 17 17 17 17 17 17 17 17 17 17 18 18 18 18 18 18 18 18 18
20 18 19 19 20 21 21 22 22 21 21 21 20 19 19 19 19 19 19 18 18 18 18 18 18 18 18 17 17 17 17 17 17 17 17 17 17 17 17 17 17 17 17 17 18 18 18 18 18
19 18 19 20 20 20 21 22 22 21 21 21 21 19 19 19 19 19 19 19 19 18 18 18 18 18 17 17 17 17 16 16 16 16 16 16 16 16 17 17 17 17 17 17 17 17 17 18 18
20 18 19 19 20 20 22 22 23 22 22 22 21 19 19 19 19 19 19 19 19 18 18 18 18 17 17 17 16 16 16 16 16 16 16 16 16 16 16 16 16 16 16 17 17 17 17 17 18
20 18 18 20 20 21 22 22 23 23 23 22 21 21 21 20 19 19 19 19 18 18 18 18 18 17 17 17 16 16 16 16 16 16 16 15 16 16 16 16 16 16 16 16 16 16 17 17 17
19 18 19 20 21 21 22 22 23 22 21 21 21 21 20 20 19 19 19 19 19 18 18 18 18 17 17 17 16 16 16 16 15 15 15 15 15 15 15 15 16 16 16 16 16 16 16 16 17
19 19 20 21 22 22 22 22 23 22 20 21 20 20 20 20 20 20 19 19 19 18 18 18 18 17 17 17 16 16 16 15 15 15 15 15 15 15 15 15 15 15 16 16 16 16 16 16 16
19 20 21 21 22 22 22 23 22 22 22 23 22 21 20 20 20 20 19 19 19 19 18 18 18 17 17 16 16 16 15 15 15 15 15 15 15 15 15 15 15 15 15 15 15 16 16 16 16
19 20 21 22 22 22 23 22 22 23 23 23 22 21 21 20 20 20 20 19 19 19 18 18 18 17 17 16 16 16 15 15 15 15 15 15 15 15 15 15 15 15 15 15 15 15 15 16 16
20 20 20 21 21 22 22 22 22 22 23 22 21 21 21 21 21 20 20 19 19 19 18 18 17 17 17 16 16 15 15 15 15 15 14 14 14 14 14 15 15 15 15 15 15 15 15 15 16
20 20 20 20 21 21 22 21 21 23 22 22 21 21 21 21 21 20 20 20 19 19 18 18 17 17 16 16 15 15 15 15 14 14 14 14 14 14 14 14 14 14 14 15 15 15 15 15 15
19 19 19 20 20 21 21 20 21 23 22 21 21 22 21 21 21 21 20 20 20 19 18 18 17 17 16 16 15 15 14 14 14 14 14 14 14 14 14 14 14 14 14 14 14 15 15 15 15
18 18 19 20 20 21 21 20 21 23 22 21 21 21 21 21 21 21 20 20 20 19 18 18 17 17 16 16 15 15 14 14 14 14 14 14 14 14 14 14 14 14 14 14 14 14 14 15 15
18 18 19 19 20 20 20 20 21 22 22 21 21 22 21 21 21 21 20 20 20 19 18 18 17 17 16 15 15 14 14 14 14 14 13 13 13 13 13 13 13 13 13 14 14 14 14 14 15
19 19 19 19 20 20 20 20 21 21 21 21 21 21 21 21 21 21 20 20 19 19 18 18 17 17 16 15 15 14 14 14 14 13 13 13 13 13 13 13 13 13 13 13 14 14 14 14 14
19 19 19 20 21 21 20 20 20 20 21 22 22 21 21 21 21 20 20 20 19 19 18 18 17 17 16 15 15 14 14 14 13 13 13 13 13 13 13 13 13 13 13 13 13 13 14 14 14
20 19 20 20 20 21 21 20 20 21 21 22 22 22 22 21 21 20 20 20 19 19 18 18 17 17 16 15 15 14 14 14 13 13 13 13 13 13 13 13 13 13 13 13 13 13 13 13 14
20 21 21 21 19 19 20 19 19 20 20 20 21 22 22 21 21 21 20 20 19 19 18 18 17 17 16 15 15 14 14 14 13 13 13 13 13 13 13 13 13 13 13 13 13 13 13 13 13
21 22 21 21 20 19 19 19 19 20 20 20 20 21 22 22 21 21 21 20 20 19 18 18 17 17 16 15 15 14 14 14 13 13 13 13 13 13 13 13 13 13 13 13 13 13 13 13 13
22 21 20 18 17 19 20 19 20 19 20 21 21 21 22 22 21 21 21 20 19 19 18 18 17 17 16 15 15 14 14 14 13 13 13 13 13 13 13 13 13 13 13 13 13 13 13 13 13
21 18 17 18 17 18 19 20 19 20 21 21 21 22 22 22 22 21 20 20 19 19 18 18 17 17 16 15 15 14 14 14 13 13 13 13 13 13 13 13 13 13 13 13 13 13 13 13 13
21 19 18 18 18 18 19 20 20 21 22 23 23 23 22 22 22 21 21 20 20 19 18 18 17 17 16 15 15 14 14 14 14 13 13 13 13 13 13 13 13 13 13 13 13 13 13 13 13
22 19 18 17 18 18 18 20 21 22 21 21 22 22 22 22 22 22 21 21 20 19 19 18 18 17 16 15 15 14 14 14 14 13 13 13 13 13 13 13 13 13 13 13 13 13 13 13 13
22 20 17 18 18 18 18 19 19 21 21 21 20 21 22 22 22 22 21 21 20 20 19 18 18 17 16 15 15 14 14 14 14 13 13 13 13 13 13 13 13 13 13 13 13 13 13 13 13
22 21 18 16 16 17 18 18 20 20 21 20 20 22 23 23 22 22 22 21 20 20 19 18 17 17 16 16 15 14 14 14 14 13 13 13 13 13 13 13 13 13 13 13 13 13 13 13 13
22 22 19 18 18 16 16 18 20 20 21 21 22 23 23 23 23 22 22 21 20 19 19 18 17 17 16 16 15 15 14 14 14 14 13 13 13 13 13 13 13 13 13 13 13 13 13 13 13
Wind_Speed
9 7 3 2 2 1 2 2 2 1 0 1 5 7 7 5 4 4 2 7 11 10 10 12 12 11 10 9 9 8 8 8 7 7 7 7 6 6 6 6 6 5 5 4 4 4 4 4 3
7 5 2 2 2 1 2 2 2 2 3 5 5 6 7 6 5 6 4 8 11 10 10 11 12 11 9 8 7 6 6 6 5 5 5 5 5 5 5 5 4 4 3 3 3 3 2 2 1
6 3 2 2 1 3 3 2 2 0 2 3 4 5 5 4 4 5 7 11 10 9 10 12 12 11 9 8 7 6 4 4 3 3 3 3 3 3 3 3 3 3 3 2 2 2 2 2 1
3 2 2 1 2 3 3 3 2 1 1 3 6 6 4 3 4 7 12 12 11 8 9 12 12 11 10 8 7 5 4 3 2 2 2 2 3 3 3 3 3 3 2 2 1 2 2 2 2
3 3 1 1 3 2 2 2 3 1 1 3 7 6 4 2 8 12 12 11 11 8 8 11 12 11 10 8 7 5 4 3 2 3 4 4 4 5 5 4 4 4 3 3 3 2 2 3 3
2 2 2 1 2 1 1 2 3 2 3 4 7 7 3 4 9 10 11 10 10 9 8 10 11 11 9 8 7 5 3 3 3 3 4 5 6 6 6 6 6 6 6 5 5 4 4 4 5
3 3 3 3 1 1 2 3 4 3 4 5 7 6 5 4 8 10 10 10 9 8 7 6 8 9 8 8 7 5 4 4 4 4 5 6 7 8 8 9 8 8 8 8 7 7 6 6 6
4 3 1 2 3 3 3 3 4 6 4 6 6 8 7 8 8 9 8 8 8 7 6 5 6 6 5 5 6 5 4 4 5 5 6 7 7 8 9 9 10 10 10 10 9 8 8 7 7
3 3 2 4 4 3 3 3 2 3 6 3 2 5 9 12 10 9 7 5 5 6 5 5 5 5 5 5 5 4 4 4 5 5 6 6 5 6 7 8 9 10 11 11 10 10 9 8 8
4 3 5 4 4 4 2 2 3 4 5 4 4 7 12 12 11 10 9 8 6 6 5 5 5 4 4 4 3 2 3 3 3 4 4 4 4 5 5 6 8 9 10 10 10 10 8 7 6
5 5 4 3 4 4 2 1 2 7 4 8 11 14 13 11 10 10 9 8 8 7 6 5 5 4 3 2 2 1 1 1 2 2 3 3 2 3 3 3 5 5 6 5 6 6 5 5 4
3 4 4 2 2 3 3 2 3 7 9 12 16 16 13 12 11 11 10 8 7 7 6 5 6 4 3 2 1 1 1 1 1 2 3 2 1 1 2 1 3 3 3 2 2 2 4 4 5
2 3 3 3 2 2 2 3 3 4 7 12 14 13 13 12 10 9 10 9 8 7 6 6 6 6 4 3 1 1 1 0 1 3 4 2 1 2 2 2 2 2 2 2 2 2 3 3 3
3 2 2 3 2 1 1 3 2 5 8 12 13 12 12 12 12 9 9 9 9 8 7 6 6 6 5 3 2 1 1 1 2 3 5 4 3 1 2 2 2 2 2 2 1 2 3 3 3
0 0 3 3 2 2 1 3 5 7 9 13 12 12 12 12 12 12 12 11 10 10 8 7 7 6 5 4 2 1 1 2 2 2 4 5 3 3 2 2 3 3 3 2 1 1 1 1 2
3 2 1 4 2 3 4 6 9 7 9 11 10 10 11 10 11 11 12 11 11 10 8 7 7 7 5 3 2 1 1 1 1 1 3 4 4 4 2 2 3 3 3 2 1 1 1 1 2
3 0 3 4 3 2 4 7 7 5 9 10 10 10 10 9 9 10 12 12 11 10 9 7 7 6 5 4 2 2 1 1 0 1 1 2 3 3 1 2 2 2 2 2 2 1 0 1 2
2 2 2 3 3 2 4 8 7 6 8 11 11 10 10 11 11 11 11 12 11 10 9 8 7 6 5 3 2 2 2 1 1 0 0 1 2 2 1 2 3 2 1 2 2 1 1 1 1
3 2 2 4 4 3 7 10 10 7 7 9 10 10 10 11 9 11 11 11 10 8 8 7 7 5 4 2 2 1 1 1 1 2 1 1 1 2 1 2 2 1 1 1 2 1 1 1 1
4 2 2 5 4 5 7 10 10 8 10 11 12 12 12 10 8 9 9 10 10 9 8 8 8 6 5 3 2 2 2 1 2 2 2 1 1 2 1 1 1 1 1 2 2 1 0 1 1
3 4 5 4 4 3 2 7 5 4 6 7 9 10 12 15 14 12 10 10 9 10 10 9 8 7 6 4 2 2 2 2 2 2 2 2 2 2 2 1 1 1 1 1 1 0 1 0 1
3 6 5 3 1 4 1 3 8 4 3 6 8 9 11 12 12 12 11 10 10 10 9 9 8 7 6 5 4 3 2 1 2 2 2 3 3 2 2 1 1 1 1 1 1 1 2 2 0
6 4 3 2 1 3 2 2 7 2 4 7 8 8 11 12 13 13 13 12 10 9 9 8 8 7 6 5 5 4 2 2 2 2 2 2 3 3 2 1 1 1 1 1 1 0 2 2 2
2 3 5 4 4 3 3 2 5 4 7 7 6 7 9 11 12 12 10 9 8 8 8 8 8 7 6 5 5 5 4 3 1 1 1 2 2 3 3 2 2 1 1 1 0 1 2 2 2
5 6 5 6 5 5 4 1 6 7 5 7 8 8 9 10 11 11 11 10 10 10 9 8 9 7 6 5 4 5 5 4 3 2 2 1 1 2 3 2 2 1 1 1 0 1 1 1 2
2 7 6 2 3 5 5 2 6 5 1 3 6 7 8 9 10 12 13 12 11 11 10 9 9 7 6 6 5 4 4 3 2 2 2 2 2 3 3 2 2 2 1 0 1 1 0 1 1
3 2 6 6 0 2 5 5 6 3 2 2 5 7 9 10 11 12 12 12 12 11 11 11 10 8 7 7 5 4 4 3 3 2 2 2 2 2 2 1 1 1 1 1 1 1 1 1 1
5 6 6 4 2 2 6 4 4 6 5 5 6 8 9 9 10 10 11 12 12 11 10 10 10 9 7 7 6 5 4 4 3 2 1 1 2 1 1 1 1 1 1 1 1 1 1 1 0
1 3 5 4 5 4 2 6 6 8 8 8 10 10 10 11 11 11 11 11 10 9 9 9 9 8 7 7 6 5 4 4 3 2 2 2 1 1 1 1 1 1 1 1 1 1 1 2 1
5 5 6 4 2 4 3 7 8 6 7 8 9 8 8 9 10 10 10 10 9 10 9 10 9 9 8 8 6 6 5 4 4 3 3 2 1 1 0 0 1 1 1 1 2 1 1 1 1
Wind_Direction
186 154 115 91 63 38 282 257 194 193 290 69 87 88 84 64 79 127 173 141 138 141 143 141 138 133 129 128 128 126 123 121 120 120 119 118 120 121 121 118 115 112 109 107 103 101 100 94 76
152 140 113 85 98 62 280 247 196 194 170 132 95 85 80 79 88 111 124 140 138 138 139 140 138 134 131 131 131 130 128 128 129 128 127 128 131 130 130 130 128 124 119 119 118 119 120 113 92
156 162 129 102 153 188 226 232 217 200 188 140 94 65 79 108 117 132 152 146 140 138 142 144 141 138 135 133 132 132 133 139 146 151 154 158 161 157 151 151 149 146 141 141 138 144 155 171 205
139 83 63 88 245 230 203 209 158 35 49 88 106 77 65 95 133 140 146 144 140 141 148 149 144 144 143 142 141 143 147 158 176 199 208 209 209 206 209 201 191 194 190 181 185 196 202 208 226
90 107 74 272 248 239 224 188 139 96 39 95 106 98 79 63 118 133 143 145 143 149 156 155 151 153 153 151 151 158 170 185 205 230 239 242 245 241 239 241 231 227 230 231 238 238 243 241 237
78 82 96 226 257 280 245 167 113 104 116 113 108 112 123 128 127 140 144 148 149 154 161 161 161 162 163 164 166 172 184 202 223 249 262 260 260 265 263 257 247 242 242 244 248 246 249 252 251
136 129 193 208 208 290 212 158 138 149 152 148 133 115 136 159 148 145 146 148 150 153 157 167 172 171 171 174 180 189 201 214 234 257 271 270 268 267 268 265 257 250 245 247 251 253 252 253 255
150 125 199 199 184 225 212 152 164 148 135 130 127 140 162 185 158 141 138 141 150 153 158 171 174 172 175 188 197 206 223 238 252 265 273 273 274 274 273 269 262 256 251 248 250 252 254 258 259
120 100 204 209 191 217 212 151 158 111 105 94 115 154 160 158 146 132 126 131 148 155 163 170 169 175 185 201 215 220 239 257 273 285 287 283 283 281 275 273 268 261 258 254 251 252 257 260 263
131 167 219 211 184 182 209 177 158 103 96 93 92 120 142 150 150 150 154 159 162 163 171 167 162 167 180 200 196 228 252 273 285 291 300 307 288 283 283 281 279 271 263 260 257 254 258 258 260
166 193 223 238 206 173 174 204 150 132 150 169 162 159 160 158 160 164 168 163 168 168 158 152 153 152 153 159 162 186 253 312 315 311 316 322 310 302 305 306 298 294 280 270 267 261 256 244 242
181 227 213 228 204 172 183 184 164 178 193 179 167 163 165 167 171 175 172 167 165 148 143 143 142 134 127 113 109 122 85 16 350 335 342 347 334 315 304 295 298 299 289 267 254 250 250 243 241
217 255 259 250 226 215 179 216 205 204 172 158 158 162 168 172 174 176 167 163 155 144 140 132 129 123 114 96 75 92 91 29 5 10 3 3 7 341 335 322 327 311 302 282 269 258 252 246 243
217 246 287 278 271 295 184 255 184 211 160 157 164 170 173 173 170 161 157 157 155 148 143 137 125 123 111 103 95 95 86 70 49 34 28 32 35 10 5 355 338 321 311 284 258 255 250 243 233
219 27 325 309 289 279 115 276 228 206 163 164 174 177 177 177 169 167 168 162 159 153 149 142 130 118 110 101 86 79 64 77 61 38 36 40 39 30 19 1 338 318 327 323 316 303 272 259 250
29 60 300 280 254 238 156 248 253 202 168 171 179 181 176 178 175 172 164 157 154 150 148 143 132 125 120 111 98 89 85 80 74 47 37 34 30 27 22 356 327 323 343 343 335 335 333 298 277
44 164 246 275 250 219 185 241 258 201 177 178 183 185 177 175 174 168 159 156 156 153 148 141 137 136 130 121 102 74 66 53 53 53 38 23 20 23 25 330 314 339 345 343 326 350 315 279 288
187 218 269 271 281 223 235 252 255 228 197 188 189 188 178 180 180 170 160 156 154 153 148 144 141 141 130 107 76 43 31 359 346 320 316 352 356 9 6 311 317 337 353 338 328 313 326 255 264
159 148 267 265 253 224 248 260 257 233 211 196 193 192 187 188 176 165 159 154 148 150 147 148 147 153 134 112 111 95 314 300 304 289 297 330 334 342 352 322 327 341 349 310 312 317 331 319 351
172 158 274 284 255 217 253 266 264 230 213 201 193 192 189 181 164 166 161 159 159 161 158 155 156 157 153 155 172 188 201 244 258 290 322 331 324 332 344 338 321 318 327 341 345 38 49 343 52
198 203 214 244 319 310 289 314 300 261 209 201 194 187 184 179 176 173 169 171 166 167 168 163 163 160 161 153 124 74 49 22 359 331 316 306 295 304 320 327 306 299 269 280 295 164 144 157 328
217 231 219 228 336 291 150 289 298 289 195 196 194 180 183 181 176 175 174 176 176 176 170 159 160 161 162 151 140 139 151 203 244 252 271 293 293 288 301 320 312 304 287 272 273 184 163 141 133
214 229 234 247 196 318 319 158 294 320 200 217 210 191 185 183 180 181 182 181 177 171 165 160 155 159 164 160 154 151 165 211 252 272 296 307 306 302 302 315 325 315 290 269 278 174 146 148 155
177 45 29 38 66 333 267 158 271 245 219 216 213 196 185 182 183 184 180 169 167 163 157 154 156 166 171 162 159 164 174 188 214 289 306 308 304 305 307 324 326 303 285 259 248 184 158 162 158
78 74 31 13 11 274 294 160 256 265 233 198 191 193 185 179 175 175 172 172 170 167 163 160 161 172 178 167 173 178 179 183 196 229 234 249 279 286 293 312 310 303 283 262 175 119 149 166 159
140 130 142 171 252 293 345 331 282 298 274 155 162 168 170 177 180 181 181 178 176 173 168 165 168 174 176 175 184 185 181 181 207 215 209 226 240 254 268 285 287 290 304 360 101 109 166 146 162
115 137 164 138 97 341 329 324 325 353 36 133 155 160 179 186 188 188 185 181 179 177 178 175 173 174 178 179 178 184 185 187 200 208 207 227 250 261 281 286 303 310 338 21 82 102 105 112 139
143 141 88 91 99 343 324 307 257 252 242 234 215 206 205 200 194 191 188 187 186 184 182 176 172 176 179 179 181 185 190 193 191 181 197 225 260 283 324 340 350 354 356 30 67 73 82 96 74
104 89 102 109 142 144 299 285 240 229 228 225 230 225 215 207 199 194 193 191 185 181 177 177 177 175 177 181 182 177 188 192 184 186 217 227 254 278 295 338 15 28 31 41 68 57 105 96 74
164 171 143 140 230 166 177 270 277 250 243 230 235 238 228 214 204 197 191 184 182 184 184 182 182 182 185 183 178 183 188 182 181 201 228 224 225 256 236 82 62 59 64 65 87 84 100 119 119
Height
1510 1510 1511 1513 1514 1518 1517 1511 1505 1504 1502 1501 1499 1500 1503 1507 1510 1516 1513 1512 1513 1514 1515 1516 1517 1518 1518 1519 1519 1519 1520 1520 1520 1520 1521 1521 1522 1522 1522 1522 1522 1523 1523 1523 1523 1523 1523 1523 1523
1509 1510 1513 1513 1516 1524 1519 1508 1505 1502 1500 1500 1501 1502 1504 1508 1509 1511 1511 1513 1514 1515 1516 1517 1517 1518 1518 1518 1519 1519 1519 1519 1519 1520 1520 1520 1521 1521 1521 1521 1521 1522 1522 1522 1522 1522 1522 1523 1523
1509 1510 1512 1513 1516 1521 1514 1505 1503 1500 1499 1499 1502 1504 1506 1509 1510 1511 1512 1513 1514 1515 1516 1517 1517 1517 1518 1518 1518 1518 1518 1518 1518 1518 1518 1519 1519 1520 1520 1520 1520 1521 1521 1521 1521 1521 1522 1522 1522
1509 1511 1511 1514 1515 1510 1505 1502 1500 1500 1500 1500 1501 1506 1508 1510 1510 1511 1512 1514 1515 1516 1516 1517 1517 1517 1517 1517 1517 1517 1517 1517 1517 1517 1517 1517 1517 1518 1518 1518 1518 1519 1519 1519 1520 1520 1521 1521 1521
1509 1509 1513 1516 1511 1505 1502 1500 1499 1500 1501 1501 1501 1506 1509 1511 1511 1511 1513 1514 1515 1516 1516 1517 1517 1517 1516 1516 1516 1516 1515 1515 1515 1515 1515 1515 1515 1516 1516 1516 1516 1517 1517 1518 1518 1519 1519 1520 1520
1508 1509 1517 1519 1511 1504 1501 1500 1499 1500 1502 1503 1503 1507 1511 1512 1512 1512 1513 1515 1515 1516 1516 1517 1517 1517 1516 1516 1516 1515 1514 1514 1513 1513 1513 1513 1513 1513 1513 1513 1514 1514 1515 1515 1516 1517 1517 1518 1518
1508 1510 1514 1513 1511 1507 1501 1499 1499 1500 1501 1503 1503 1507 1510 1512 1512 1513 1514 1515 1516 1516 1516 1516 1516 1516 1516 1516 1515 1515 1514 1513 1512 1512 1511 1511 1511 1511 1511 1511 1511 1512 1512 1513 1514 1514 1515 1516 1516
1505 1509 1511 1511 1510 1507 1499 1498 1498 1498 1500 1502 1502 1504 1508 1510 1512 1513 1515 1515 1516 1516 1516 1516 1516 1516 1516 1515 1515 1514 1513 1512 1511 1511 1510 1510 1509 1509 1509 1509 1509 1510 1510 1511 1511 1512 1513 1513 1514
1504 1511 1513 1508 1506 1503 1498 1498 1498 1498 1499 1501 1502 1503 1504 1508 1511 1513 1514 1515 1516 1516 1516 1516 1516 1515 1515 1515 1514 1513 1512 1511 1511 1510 1509 1508 1508 1507 1507 1507 1507 1507 1507 1508 1509 1509 1510 1510 1512
1503 1511 1506 1499 1498 1498 1497 1497 1498 1499 1500 1502 1503 1503 1505 1507 1510 1511 1513 1514 1515 1515 1515 1515 1515 1515 1514 1514 1513 1512 1512 1511 1510 1509 1508 1507 1506 1506 1506 1505 1505 1505 1505 1505 1506 1506 1507 1508 1509
1501 1503 1498 1497 1496 1496 1496 1496 1497 1498 1501 1500 1501 1502 1504 1506 1509 1510 1512 1513 1514 1514 1515 1515 1515 1514 1513 1513 1512 1511 1511 1510 1509 1508 1507 1506 1505 1505 1504 1504 1503 1503 1503 1503 1503 1504 1504 1505 1506
1499 1498 1496 1496 1495 1495 1496 1496 1497 1496 1496 1497 1498 1500 1503 1505 1507 1509 1510 1512 1513 1514 1514 1514 1514 1513 1513 1512 1511 1510 1510 1509 1508 1507 1506 1505 1504 1503 1502 1502 1502 1501 1501 1501 1501 1502 1502 1503 1504
1498 1497 1496 1495 1494 1495 1494 1495 1496 1495 1495 1496 1498 1500 1502 1504 1506 1508 1510 1511 1512 1513 1513 1513 1513 1512 1512 1511 1510 1509 1509 1508 1507 1505 1504 1503 1502 1501 1501 1500 1500 1499 1499 1499 1499 1499 1500 1500 1501
1497 1497 1497 1495 1494 1494 1494 1495 1495 1494 1494 1496 1498 1499 1501 1503 1505 1507 1509 1510 1511 1511 1512 1512 1512 1511 1511 1510 1509 1508 1507 1506 1505 1504 1503 1502 1501 1500 1499 1498 1498 1497 1497 1497 1497 1497 1498 1498 1499
1496 1499 1498 1496 1495 1495 1496 1497 1493 1492 1493 1495 1496 1498 1500 1501 1503 1505 1506 1508 1509 1510 1510 1510 1510 1510 1509 1508 1507 1507 1506 1505 1504 1503 1501 1500 1499 1498 1497 1496 1496 1495 1495 1495 1495 1495 1495 1496 1496
1498 1502 1506 1498 1496 1494 1498 1502 1490 1490 1491 1493 1494 1496 1498 1500 1502 1503 1505 1506 1508 1508 1509 1509 1509 1509 1508 1507 1506 1505 1504 1503 1502 1501 1500 1499 1497 1496 1495 1494 1494 1493 1492 1492 1492 1493 1493 1493 1494
1505 1510 1508 1501 1494 1494 1496 1497 1487 1488 1490 1491 1493 1494 1496 1498 1500 1502 1503 1505 1506 1507 1507 1507 1508 1507 1506 1506 1505 1504 1503 1502 1501 1500 1498 1497 1496 1495 1493 1492 1492 1491 1490 1490 1490 1490 1491 1491 1491
1511 1510 1507 1504 1495 1494 1496 1493 1487 1487 1488 1489 1491 1492 1494 1496 1498 1500 1502 1503 1504 1505 1506 1506 1506 1506 1505 1504 1504 1503 1502 1501 1500 1498 1497 1495 1494 1493 1492 1490 1490 1489 1489 1488 1488 1488 1488 1489 1489
1501 1505 1507 1501 1493 1495 1495 1492 1486 1484 1486 1487 1489 1490 1492 1494 1496 1499 1500 1502 1503 1504 1504 1505 1504 1504 1504 1503 1502 1501 1501 1499 1498 1497 1496 1494 1493 1491 1490 1489 1488 1487 1487 1486 1486 1486 1486 1487 1487
1501 1505 1505 1498 1492 1494 1494 1491 1483 1481 1482 1482 1484 1487 1489 1492 1495 1497 1499 1500 1501 1502 1503 1503 1503 1503 1502 1502 1501 1501 1500 1498 1497 1496 1495 1493 1492 1490 1489 1488 1487 1486 1485 1485 1484 1484 1485 1485 1486
1500 1502 1501 1500 1494 1492 1494 1494 1485 1479 1479 1481 1482 1483 1486 1488 1491 1494 1496 1498 1499 1500 1501 1501 1501 1501 1501 1501 1500 1500 1499 1498 1497 1495 1494 1492 1491 1489 1488 1487 1486 1485 1484 1483 1483 1483 1483 1484 1485
1501 1492 1492 1495 1502 1506 1498 1511 1492 1483 1481 1480 1480 1481 1483 1486 1489 1491 1493 1495 1497 1498 1499 1499 1500 1500 1500 1499 1499 1498 1498 1497 1496 1494 1493 1492 1490 1489 1487 1486 1485 1484 1483 1482 1482 1482 1482 1483 1483
1491 1486 1490 1493 1500 1506 1501 1508 1500 1486 1484 1481 1479 1479 1481 1483 1486 1489 1491 1493 1495 1496 1497 1498 1498 1498 1498 1498 1498 1497 1497 1496 1495 1494 1492 1491 1489 1488 1487 1485 1484 1483 1482 1481 1481 1481 1481 1482 1482
1485 1490 1494 1501 1507 1516 1502 1507 1504 1491 1482 1478 1478 1479 1480 1482 1485 1487 1489 1492 1493 1495 1495 1496 1496 1497 1497 1497 1496 1496 1496 1495 1494 1493 1491 1490 1489 1487 1486 1485 1483 1482 1481 1480 1480 1480 1480 1481 1482
1489 1505 1521 1523 1527 1520 1501 1503 1500 1482 1476 1475 1475 1477 1479 1481 1483 1485 1487 1489 1491 1492 1493 1494 1494 1495 1495 1495 1495 1495 1494 1494 1493 1492 1491 1490 1488 1487 1485 1484 1483 1482 1481 1480 1480 1479 1480 1480 1481
1492 1502 1521 1529 1529 1521 1505 1505 1494 1478 1474 1474 1474 1476 1478 1479 1481 1483 1484 1486 1488 1489 1491 1492 1492 1493 1493 1493 1494 1494 1493 1493 1492 1491 1490 1489 1488 1487 1485 1484 1483 1481 1481 1480 1480 1479 1479 1479 1480
1492 1499 1501 1515 1517 1523 1515 1501 1488 1478 1477 1476 1476 1477 1477 1478 1479 1480 1482 1484 1485 1487 1488 1489 1490 1491 1491 1492 1492 1492 1492 1492 1491 1491 1490 1489 1488 1486 1485 1484 1483 1482 1481 1480 1480 1479 1479 1479 1480
1485 1492 1507 1515 1525 1531 1521 1510 1503 1486 1482 1478 1477 1476 1476 1476 1477 1478 1480 1481 1483 1484 1486 1487 1488 1489 1489 1490 1490 1491 1491 1491 1490 1490 1489 1488 1487 1486 1485 1484 1483 1482 1481 1480 1480 1480 1479 1479 1479
1489 1493 1504 1516 1520 1530 1530 1518 1487 1482 1478 1477 1475 1474 1473 1474 1474 1475 1477 1479 1480 1482 1483 1485 1486 1487 1487 1488 1489 1489 1489 1489 1489 1489 1489 1488 1487 1486 1485 1484 1483 1482 1481 1481 1480 1480 1480 1479 1479
1484 1489 1499 1514 1516 1520 1526 1516 1478 1477 1474 1473 1472 1471 1471 1471 1472 1473 1474 1476 1478 1479 1480 1482 1483 1484 1485 1486 1486 1487 1488 1488 1488 1488 1488 1487 1487 1486 1485 1484 1483 1482 1482 1481 1481 1480 1480 1479 1479